{"data":{"norad_id":66642,"epoch":"2026-05-24T07:47:53.467296Z","epoch_age_seconds":133622,"freshness":"FRESH","line1":"1 66642U 25271AB  26144.32492439  .00009789  00000+0  34222-3 0  9992","line2":"2 66642  53.1578 148.8289 0001119  93.7006 266.4123 15.30197967 29106","mean_motion":15.30197967,"eccentricity":0.0001119,"inclination_deg":53.1578,"raan_deg":148.8289,"arg_perigee_deg":93.7006,"mean_anomaly_deg":266.4123,"bstar":0.00034222,"rev_number":2910,"period_min":94.105470733513,"perigee_km":474.45424882177,"apogee_km":475.98803037342,"semimajor_km":6853.3581395976,"source":"CELESTRAK","updated_at":"2026-05-25T13:38:21.299480Z"}}